Regional Weather Roundup
Issued by NWS

Home | Current Version | Previous Version | Graphics & Text | Print | Product List | Glossary On
Versions: 1 2 3 4 5 6 7 8 9 10 11 12 13 14 15 16 17 18 19 20 21 22 23 24 25 26 27 28 29 30 31 32 33 34 35 36 37 38 39 40 41 42 43 44 45 46 47 48 49 50
000
ASUS43 KLMK 251010
RWRKY
KENTUCKY REGIONAL WEATHER ROUNDUP
NATIONAL WEATHER SERVICE LOUISVILLE KY
600 AM EDT MON JUL 25 2016

NOTE "FAIR" INDICATES FEW OR NO CLOUDS BELOW 12,000 FEET
WITH NO SIGNIFICANT WEATHER AND/OR OBSTRUCTIONS TO VISIBILITY.

KYZ001>023-026-027-061>063-070>075-251100-
WESTERN AND SOUTH CENTRAL KENTUCKY

CITY           SKY/WX    TMP DP  RH WIND       PRES   REMARKS
PADUCAH        PTCLDY    79  76  90 SW3       29.98S
HENDERSON      MOCLDY    79  73  83 N5        29.98S
OWENSBORO      PTCLDY    80  78  94 CALM      29.99F
HOPKINSVILLE   CLEAR     78  74  88 S5        29.99F
BOWLING GREEN  MOCLDY    79  75  87 CALM      30.01S
GLASGOW        PTCLDY    76  76 100 CALM      30.01S
$$

KYZ024-025-028>034-038-045-046-053-251100-
NORTH CENTRAL KENTUCKY

CITY           SKY/WX    TMP DP  RH WIND       PRES   REMARKS
LOUISVILLE/SDF MOCLDY    82  75  79 CALM      29.98F
LOUISVILLE/LOU PTCLDY    79  75  87 CALM      29.99F
FORT KNOX      PTCLDY    75  74  95 CALM      29.99F
$$

KYZ035>037-039>044-047>052-055>060-089>105-251100-
NORTHEAST KENTUCKY

CITY           SKY/WX    TMP DP  RH WIND       PRES   REMARKS
LEXINGTON      CLOUDY    75  72  90 S3        30.03S
COVINGTON      MOCLDY    76  75  97 S7        29.99F FOG
FRANKFORT      CLOUDY    77  73  87 CALM      30.01S
$$

KYZ054-064>069-076>088-106>120-251100-
SOUTHEAST KENTUCKY

CITY           SKY/WX    TMP DP  RH WIND       PRES   REMARKS
JACKSON        CLOUDY    75  73  93 CALM      30.06S
LONDON         CLEAR     73  70  90 S5        30.06S
SOMERSET       CLOUDY    72  72 100 CALM      30.05S
MIDDLESBORO    MOCLDY    72  72 100 CALM      30.08S
MONTICELLO     SUNNY    N/A N/A N/A W12       30.06
$$





USA.gov is the U.S. government's official web portal to all federal, state and local government web resources and services.